Cherokee, North Carolina, United States (28719)
Lat: 35.47N, Lon: 83.31W
Wx Zone: NCZ051
Local Info
Past Weather Observations for Today

NOTE: This archive is for the closest National Weather Service station to Cherokee. Information may differ from the station used for current weather conditions.

Click here for Long-term Archive

Time Weather Temperature Dewpoint Humidity Pressure Winds Precip Visibility
20:55
Fair
45°F / 7°C 32°F / 0°C 61% 30.12 in
(1020 mb)
Calm - 10SM
20:35
Fair
46°F / 8°C 32°F / 0°C 57% 30.12 in
(1020 mb)
SSW 3.5 mph
(SSW 6 kph)
- 10SM
20:15
Fair
46°F / 8°C 32°F / 0°C 57% 30.12 in
(1020 mb)
Calm - 10SM
19:55
Fair
46°F / 8°C 30°F / -1°C 53% 30.12 in
(1020 mb)
Calm - 10SM
19:35
Fair
46°F / 8°C 30°F / -1°C 53% 30.12 in
(1020 mb)
Calm - 10SM
19:15
Fair
46°F / 8°C 30°F / -1°C 53% 30.12 in
(1020 mb)
Calm - 10SM
18:55
Fair
48°F / 9°C 32°F / 0°C 54% 30.12 in
(1020 mb)
NNW 6.9 mph
(NNW 11 kph)
- 10SM
18:35
Fair
48°F / 9°C 34°F / 1°C 58% 30.09 in
(1019 mb)
N 9.2 mph
(N 15 kph)
- 10SM
18:15
Fair
50°F / 10°C 34°F / 1°C 54% 30.09 in
(1019 mb)
NNW 6.9 mph
(NNW 11 kph)
- 10SM
17:55
Fair
50°F / 10°C 32°F / 0°C 50% 30.09 in
(1019 mb)
NNW 3.5 mph
(NNW 6 kph)
- 10SM
17:35
Fair
50°F / 10°C 30°F / -1°C 47% 30.09 in
(1019 mb)
NNW 6.9 mph
(NNW 11 kph)
- 10SM
17:15
Fair
50°F / 10°C 32°F / 0°C 50% 30.09 in
(1019 mb)
Calm - 10SM
16:55
Fair
52°F / 11°C 32°F / 0°C 47% 30.06 in
(1018 mb)
Calm - 10SM
16:35
Fair
54°F / 12°C 30°F / -1°C 41% 30.06 in
(1018 mb)
Calm - 10SM
16:15
Fair
54°F / 12°C 25°F / -4°C 33% 30.06 in
(1018 mb)
Calm - 10SM
15:55
Fair
54°F / 12°C 23°F / -5°C 30% 30.06 in
(1018 mb)
Calm - 10SM
15:35
Fair
54°F / 12°C 23°F / -5°C 30% 30.06 in
(1018 mb)
Calm - 10SM
15:15
Fair
54°F / 12°C 21°F / -6°C 28% 30.06 in
(1018 mb)
Calm - 10SM
14:55
Fair
54°F / 12°C 19°F / -7°C 26% 30.06 in
(1018 mb)
Calm - 10SM
14:35
Fair
52°F / 11°C 19°F / -7°C 28% 30.06 in
(1018 mb)
Calm - 10SM
14:15
Fair
52°F / 11°C 14°F / -10°C 22% 30.09 in
(1019 mb)
Calm - 10SM
13:55
Fair
52°F / 11°C 14°F / -10°C 22% 30.09 in
(1019 mb)
Calm - 10SM
13:35
Fair
50°F / 10°C 14°F / -10°C 24% 30.09 in
(1019 mb)
Calm - 10SM
13:15
Fair
48°F / 9°C 21°F / -6°C 34% 30.09 in
(1019 mb)
Calm - 10SM
12:55
Fair
46°F / 8°C 27°F / -3°C 46% 30.12 in
(1020 mb)
Calm - 10SM
12:35
Fair
46°F / 8°C 28°F / -2°C 50% 30.12 in
(1020 mb)
Calm - 10SM
12:15
Fair
45°F / 7°C 28°F / -2°C 53% 30.15 in
(1021 mb)
Calm - 10SM
11:55
Fair
45°F / 7°C 30°F / -1°C 57% 30.15 in
(1021 mb)
Calm - 10SM
11:35
Fair
43°F / 6°C 30°F / -1°C 61% 30.18 in
(1022 mb)
Calm - 10SM
11:15
Fair
41°F / 5°C 30°F / -1°C 66% 30.18 in
(1022 mb)
Calm - 10SM
10:55
Fair
39°F / 4°C 32°F / 0°C 75% 30.18 in
(1022 mb)
Calm - 10SM
10:35
Fair
37°F / 3°C 32°F / 0°C 81% 30.21 in
(1023 mb)
Calm - 10SM
10:15
Fair
36°F / 2°C 32°F / 0°C 87% 30.21 in
(1023 mb)
Calm - 10SM
09:55
Fair
36°F / 2°C 32°F / 0°C 87% 30.21 in
(1023 mb)
Calm - 10SM
09:35
Fair
34°F / 1°C 32°F / 0°C 93% 30.21 in
(1023 mb)
Calm - 10SM
09:15
Fair
34°F / 1°C 32°F / 0°C 93% 30.21 in
(1023 mb)
Calm - 10SM
08:55
Fair
32°F / 0°C 32°F / 0°C 100% 30.21 in
(1023 mb)
Calm - 10SM
08:35
Fair
32°F / 0°C 32°F / 0°C 100% 30.21 in
(1023 mb)
Calm - 10SM
08:15
Fair
32°F / 0°C 32°F / 0°C 100% 30.21 in
(1023 mb)
Calm - 10SM
07:55
Fair
32°F / 0°C 30°F / -1°C 93% 30.21 in
(1023 mb)
Calm - 10SM
07:35
Fair
30°F / -1°C 30°F / -1°C 100% 30.21 in
(1023 mb)
Calm - 10SM
07:15
Fair
30°F / -1°C 30°F / -1°C 100% 30.18 in
(1022 mb)
Calm - 10SM
06:55
Fair
30°F / -1°C 28°F / -2°C 93% 30.18 in
(1022 mb)
Calm - 10SM
06:35
Fair
30°F / -1°C 28°F / -2°C 93% 30.18 in
(1022 mb)
Calm - 10SM
06:15
Fair
30°F / -1°C 28°F / -2°C 93% 30.18 in
(1022 mb)
Calm - 10SM
05:55
Fair
28°F / -2°C 28°F / -2°C 100% 30.15 in
(1021 mb)
Calm - 10SM
05:35
Fair
28°F / -2°C 28°F / -2°C 100% 30.15 in
(1021 mb)
Calm - 10SM
05:15
Fair
28°F / -2°C 27°F / -3°C 93% 30.15 in
(1021 mb)
Calm - 10SM
04:55
Fair
28°F / -2°C 27°F / -3°C 93% 30.15 in
(1021 mb)
Calm - 10SM
04:35
Fair
27°F / -3°C 27°F / -3°C 100% 30.15 in
(1021 mb)
Calm - 10SM
04:15
Fair
28°F / -2°C 27°F / -3°C 93% 30.15 in
(1021 mb)
Calm - 10SM
03:55
Fair
28°F / -2°C 27°F / -3°C 93% 30.15 in
(1021 mb)
Calm - 10SM
03:35
Fair
28°F / -2°C 27°F / -3°C 93% 30.15 in
(1021 mb)
Calm - 10SM
03:15
Fair
27°F / -3°C 25°F / -4°C 93% 30.15 in
(1021 mb)
Calm - 10SM
02:55
Fair
27°F / -3°C 27°F / -3°C 100% 30.15 in
(1021 mb)
Calm - 10SM
02:35
Fair
27°F / -3°C 27°F / -3°C 100% 30.15 in
(1021 mb)
Calm - 10SM
02:15
Fair
27°F / -3°C 27°F / -3°C 100% 30.15 in
(1021 mb)
Calm - 10SM
01:55
Fair
27°F / -3°C 27°F / -3°C 100% 30.15 in
(1021 mb)
Calm - 10SM
01:35
Fair
27°F / -3°C 27°F / -3°C 100% 30.15 in
(1021 mb)
Calm - 10SM
01:15
Fair
27°F / -3°C 27°F / -3°C 100% 30.15 in
(1021 mb)
Calm - 10SM
00:55
Fair
27°F / -3°C 25°F / -4°C 93% 30.15 in
(1021 mb)
Calm - 10SM
00:35
Fair
27°F / -3°C 27°F / -3°C 100% 30.15 in
(1021 mb)
Calm - 10SM
00:15
Fair
27°F / -3°C 27°F / -3°C 100% 30.15 in
(1021 mb)
Calm - 10SM
Time Weather Temperature Dewpoint Humidity Pressure Winds Precip Visibility


Weather for websites

WeatherForYou.com, LLC is not responsible for any damages or problems caused by this service. Current weather conditions are obtained from the closest station including government and personal stations which may have varying degrees of accuracy. Weather forecasts are derived from the NOAA NDFD. Like all things, this site belongs to Jesus Christ... He just trusts me to maintain it. If you have any questions or comments email webmaster@weatherforyou.com

Copyright © 2014, WeatherForYou.com LLC. All rights reserved.